| time (UTC) | temp F | wind direction | speed knots | gust knots | rain 1hr in | rain 24hr in | rain mn in | humidity % | barometer mb |
| 20260505171250 | 58 | 29 | 0.0 | 0.0 | 0.00 | 0.00 | 0.00 | 80 | 1015.6 |
| 20260505170251 | 58 | 29 | 0.0 | 0.9 | 0.00 | 0.00 | 0.00 | 80 | 1015.5 |
| 20260505165250 | 57 | 29 | 0.0 | 0.0 | 0.00 | 0.00 | 0.00 | 83 | 1015.5 |
| 20260505164250 | 57 | 29 | 0.0 | 0.0 | 0.00 | 0.00 | 0.00 | 83 | 1015.5 |
| 20260505163255 | 56 | 29 | 0.0 | 0.0 | 0.00 | 0.00 | 0.00 | 85 | 1015.5 |
| 20260505162250 | 55 | 29 | 0.0 | 0.0 | 0.00 | 0.00 | 0.00 | 86 | 1015.6 |
| 20260505161250 | 54 | 29 | 0.0 | 0.0 | 0.00 | 0.00 | 0.00 | 87 | 1015.6 |
| 20260505160251 | 53 | 29 | 0.0 | 0.0 | 0.00 | 0.00 | 0.00 | 88 | 1015.5 |
| 20260505153250 | 52 | 29 | 0.0 | 0.0 | 0.00 | 0.00 | 0.00 | 91 | 1015.6 |
| 20260505152251 | 52 | 29 | 0.0 | 0.0 | 0.00 | 0.00 | 0.00 | 91 | 1015.5 |
| 20260505151251 | 52 | 29 | 0.0 | 0.0 | 0.00 | 0.00 | 0.00 | 92 | 1015.4 |
| 20260505150253 | 52 | 29 | 0.0 | 0.0 | 0.00 | 0.00 | 0.00 | 92 | 1015.3 |
| 20260505140251 | 51 | 29 | 0.0 | 0.0 | 0.00 | 0.00 | 0.00 | 91 | 1014.9 |
| 20260505130250 | 51 | 29 | 0.0 | 0.0 | 0.00 | 0.00 | 0.00 | 92 | 1014.6 |
| 20260505124250 | 51 | 29 | 0.0 | 0.0 | 0.00 | 0.00 | 0.00 | 91 | 1014.6 |
| 20260505123253 | 51 | 29 | 0.0 | 0.0 | 0.00 | 0.00 | 0.00 | 91 | 1014.6 |
| 20260505122250 | 51 | 29 | 0.0 | 0.0 | 0.00 | 0.00 | 0.00 | 91 | 1014.7 |
| 20260505121250 | 51 | 29 | 0.0 | 0.0 | 0.00 | 0.00 | 0.00 | 91 | 1014.7 |
| 20260505120250 | 51 | 29 | 0.0 | 0.0 | 0.00 | 0.00 | 0.00 | 91 | 1014.8 |
| 20260505115251 | 51 | 29 | 0.0 | 0.0 | 0.00 | 0.00 | 0.00 | 91 | 1014.8 |
| 20260505114250 | 51 | 29 | 0.0 | 0.0 | 0.00 | 0.00 | 0.00 | 91 | 1014.8 |
| 20260505113255 | 51 | 29 | 0.0 | 0.0 | 0.00 | 0.00 | 0.00 | 91 | 1014.8 |
| 20260505112250 | 51 | 29 | 0.0 | 0.0 | 0.00 | 0.00 | 0.00 | 91 | 1014.7 |
| 20260505111252 | 51 | 29 | 0.0 | 0.0 | 0.00 | 0.00 | 0.00 | 91 | 1014.5 |
| 20260505110253 | 51 | 29 | 0.0 | 0.0 | 0.00 | 0.00 | 0.00 | 91 | 1014.6 |
| 20260505101251 | 51 | 29 | 0.0 | 0.0 | 0.00 | 0.00 | 0.00 | 91 | 1014.7 |
| 20260505100253 | 51 | 29 | 0.0 | 0.0 | 0.00 | 0.00 | 0.00 | 91 | 1014.8 |
| 20260505095251 | 51 | 29 | 0.0 | 0.0 | 0.00 | 0.00 | 0.00 | 91 | 1014.9 |
| 20260505094253 | 51 | 29 | 0.0 | 0.0 | 0.00 | 0.00 | 0.00 | 91 | 1014.8 |
| 20260505093251 | 51 | 29 | 0.0 | 0.0 | 0.00 | 0.00 | 0.00 | 91 | 1014.8 |
| 20260505092250 | 51 | 29 | 0.0 | 0.0 | 0.00 | 0.00 | 0.00 | 91 | 1015.0 |
| 20260505091251 | 51 | 29 | 0.0 | 0.0 | 0.00 | 0.00 | 0.00 | 91 | 1015.3 |
| 20260505090253 | 51 | 29 | 0.0 | 0.0 | 0.00 | 0.00 | 0.00 | 90 | 1015.3 |
| 20260505085250 | 51 | 29 | 0.0 | 0.0 | 0.00 | 0.00 | 0.00 | 90 | 1015.3 |
| 20260505084252 | 51 | 29 | 0.0 | 0.0 | 0.00 | 0.00 | 0.00 | 90 | 1015.4 |
| 20260505083250 | 51 | 29 | 0.0 | 0.0 | 0.00 | 0.00 | 0.00 | 90 | 1015.4 |
| 20260505082253 | 51 | 29 | 0.0 | 0.0 | 0.00 | 0.00 | 0.00 | 90 | 1015.4 |
| 20260505081251 | 51 | 29 | 0.0 | 0.0 | 0.00 | 0.00 | 0.00 | 90 | 1015.7 |
| 20260505080254 | 51 | 29 | 0.0 | 0.0 | 0.00 | 0.00 | 0.00 | 90 | 1015.5 |
| 20260505075253 | 51 | 29 | 0.0 | 0.0 | 0.00 | 0.00 | 0.00 | 90 | 1015.6 |
| 20260505074250 | 51 | 29 | 0.0 | 0.0 | 0.00 | 0.00 | 0.00 | 90 | 1015.5 |
| 20260505073250 | 51 | 29 | 0.0 | 0.0 | 0.00 | 0.00 | 0.00 | 90 | 1015.5 |
| 20260505072250 | 51 | 29 | 0.0 | 0.0 | 0.00 | 0.00 | 0.00 | 90 | 1015.4 |
| 20260505071254 | 51 | 29 | 0.0 | 0.0 | 0.00 | 0.00 | 0.00 | 89 | 1015.3 |
| 20260505070250 | 51 | 29 | 0.0 | 0.0 | 0.00 | 0.00 | 0.00 | 89 | 1015.3 |
| 20260505065250 | 51 | 29 | 0.0 | 0.0 | 0.00 | 0.00 | 0.00 | 89 | 1015.4 |
| 20260505064252 | 52 | 29 | 0.0 | 0.0 | 0.00 | 0.00 | 0.00 | 88 | 1015.2 |
| 20260505063251 | 52 | 29 | 0.0 | 0.0 | 0.00 | 0.00 | 0.00 | 88 | 1015.2 |
| 20260505062254 | 52 | 29 | 0.0 | 0.0 | 0.00 | 0.00 | 0.00 | 87 | 1015.1 |
| 20260505061250 | 53 | 29 | 0.0 | 0.0 | 0.00 | 0.00 | 0.00 | 87 | 1015.1 |
| 20260505060250 | 53 | 29 | 0.0 | 0.0 | 0.00 | 0.00 | 0.00 | 86 | 1015.3 |
| 20260505055250 | 53 | 29 | 0.0 | 0.0 | 0.00 | 0.00 | 0.00 | 86 | 1015.3 |
| 20260505054250 | 53 | 29 | 0.0 | 0.0 | 0.00 | 0.00 | 0.00 | 86 | 1015.5 |
| 20260505053250 | 53 | 29 | 0.0 | 0.0 | 0.00 | 0.00 | 0.00 | 86 | 1015.6 |
| 20260505052251 | 53 | 29 | 0.0 | 0.0 | 0.00 | 0.00 | 0.00 | 86 | 1015.6 |
| 20260505051250 | 53 | 29 | 0.0 | 0.0 | 0.00 | 0.00 | 0.00 | 85 | 1015.7 |
| 20260505050252 | 54 | 29 | 0.0 | 0.0 | 0.00 | 0.00 | 0.00 | 86 | 1015.5 |
| 20260505041253 | 54 | 29 | 0.0 | 0.0 | 0.00 | 0.00 | 0.00 | 84 | 1015.2 |
| 20260505040253 | 54 | 29 | 0.0 | 0.0 | 0.00 | 0.00 | 0.00 | 83 | 1015.2 |
| 20260505035250 | 55 | 29 | 0.0 | 0.0 | 0.00 | 0.00 | 0.00 | 82 | 1015.0 |
| 20260505034250 | 55 | 29 | 0.0 | 0.0 | 0.00 | 0.00 | 0.00 | 81 | 1014.8 |
| 20260505033253 | 55 | 29 | 0.0 | 0.0 | 0.00 | 0.00 | 0.00 | 80 | 1014.7 |
| 20260505032250 | 56 | 29 | 0.0 | 0.0 | 0.00 | 0.00 | 0.00 | 80 | 1014.7 |
| 20260505031250 | 56 | 29 | 0.0 | 0.0 | 0.00 | 0.00 | 0.00 | 79 | 1014.8 |
| 20260505030250 | 57 | 29 | 0.0 | 0.0 | 0.00 | 0.00 | 0.00 | 79 | 1014.8 |
| 20260505025251 | 57 | 29 | 0.0 | 0.0 | 0.00 | 0.00 | 0.00 | 78 | 1014.5 |
| 20260505024251 | 58 | 29 | 0.0 | 0.0 | 0.00 | 0.00 | 0.00 | 78 | 1014.7 |
| 20260505023250 | 58 | 29 | 0.0 | 0.0 | 0.00 | 0.00 | 0.00 | 76 | 1014.4 |
| 20260505022250 | 59 | 29 | 0.0 | 0.0 | 0.00 | 0.00 | 0.00 | 74 | 1014.5 |
| 20260505021250 | 59 | 29 | 0.0 | 0.0 | 0.00 | 0.00 | 0.00 | 73 | 1014.3 |
| 20260505020250 | 60 | 29 | 0.0 | 0.0 | 0.00 | 0.00 | 0.00 | 71 | 1014.3 |
| 20260505015251 | 60 | 29 | 0.0 | 0.0 | 0.00 | 0.00 | 0.00 | 70 | 1014.3 |
| 20260505014254 | 61 | 29 | 0.0 | 0.0 | 0.00 | 0.00 | 0.00 | 69 | 1014.3 |
| 20260505013251 | 61 | 29 | 0.0 | 0.0 | 0.00 | 0.00 | 0.00 | 69 | 1014.3 |
| 20260505012250 | 61 | 65 | 0.0 | 0.0 | 0.00 | 0.00 | 0.00 | 69 | 1014.4 |
| 20260505011253 | 62 | 63 | 0.0 | 2.6 | 0.00 | 0.00 | 0.00 | 69 | 1014.5 |
| 20260505010251 | 62 | 140 | 0.0 | 2.6 | 0.00 | 0.00 | 0.00 | 68 | 1014.5 |
| 20260505005253 | 62 | 57 | 0.0 | 0.0 | 0.00 | 0.00 | 0.00 | 69 | 1014.5 |
| 20260505004250 | 62 | 67 | 0.0 | 0.0 | 0.00 | 0.00 | 0.00 | 69 | 1014.5 |
| 20260505003250 | 62 | 67 | 0.0 | 2.6 | 0.00 | 0.00 | 0.00 | 71 | 1014.6 |
| 20260505002250 | 62 | 239 | 0.0 | 0.9 | 0.00 | 0.00 | 0.00 | 71 | 1014.5 |
| 20260505001250 | 61 | 331 | 0.0 | 0.9 | 0.00 | 0.00 | 0.00 | 72 | 1014.6 |
| 20260505000253 | 61 | 303 | 0.0 | 0.0 | 0.00 | 0.00 | 0.00 | 73 | 1014.4 |
| 20260504235250 | 61 | 303 | 0.0 | 0.0 | 0.00 | 0.00 | 0.00 | 72 | 1014.5 |
| 20260504234254 | 61 | 303 | 0.0 | 0.9 | 0.00 | 0.00 | 0.00 | 71 | 1014.5 |
| 20260504233254 | 62 | 303 | 0.0 | 0.0 | 0.00 | 0.00 | 0.00 | 70 | 1014.5 |
| 20260504232253 | 63 | 304 | 0.0 | 0.0 | 0.00 | 0.00 | 0.00 | 67 | 1014.4 |
| 20260504231250 | 65 | 189 | 0.0 | 1.7 | 0.00 | 0.00 | 0.00 | 63 | 1014.5 |
| 20260504230253 | 66 | 333 | 0.0 | 0.0 | 0.00 | 0.00 | 0.00 | 63 | 1014.4 |
| 20260504225251 | 67 | 333 | 0.0 | 2.6 | 0.00 | 0.00 | 0.00 | 60 | 1014.4 |
| 20260504224250 | 66 | 167 | 2.6 | 6.1 | 0.00 | 0.00 | 0.00 | 60 | 1014.4 |
| 20260504223253 | 66 | 338 | 0.0 | 2.6 | 0.00 | 0.00 | 0.00 | 63 | 1014.5 |
| 20260504222250 | 64 | 169 | 0.0 | 0.0 | 0.00 | 0.00 | 0.00 | 66 | 1014.7 |
| 20260504221250 | 65 | 169 | 0.0 | 0.9 | 0.00 | 0.00 | 0.00 | 64 | 1014.9 |
| 20260504220254 | 65 | 164 | 0.0 | 4.3 | 0.00 | 0.00 | 0.00 | 64 | 1015.0 |
| 20260504215250 | 67 | 306 | 0.0 | 5.2 | 0.00 | 0.00 | 0.00 | 60 | 1015.1 |
| 20260504214251 | 66 | 71 | 0.0 | 4.3 | 0.00 | 0.00 | 0.00 | 65 | 1015.0 |
| 20260504213253 | 63 | 247 | 0.0 | 0.9 | 0.00 | 0.00 | 0.00 | 69 | 1015.0 |
| 20260504212253 | 61 | 102 | 0.0 | 1.7 | 0.00 | 0.00 | 0.00 | 71 | 1015.3 |
| 20260504211250 | 61 | 332 | 0.0 | 1.7 | 0.00 | 0.00 | 0.00 | 70 | 1015.4 |
| 20260504210250 | 60 | 158 | 0.0 | 1.7 | 0.00 | 0.00 | 0.00 | 71 | 1015.4 |
| 20260504205250 | 60 | 87 | 0.0 | 0.9 | 0.00 | 0.00 | 0.00 | 73 | 1015.4 |
| 20260504204251 | 59 | 87 | 0.0 | 0.0 | 0.00 | 0.00 | 0.00 | 75 | 1015.4 |
| 20260504203250 | 59 | 87 | 0.0 | 1.7 | 0.00 | 0.00 | 0.00 | 74 | 1015.4 |
| 20260504202250 | 59 | 32 | 0.0 | 0.0 | 0.00 | 0.00 | 0.00 | 77 | 1015.3 |
| 20260504201251 | 59 | 32 | 0.0 | 0.9 | 0.00 | 0.00 | 0.00 | 76 | 1015.5 |
| 20260504200253 | 59 | 349 | 0.9 | 2.6 | 0.00 | 0.00 | 0.00 | 74 | 1015.4 |
| 20260504195250 | 60 | 344 | 0.0 | 2.6 | 0.00 | 0.00 | 0.00 | 73 | 1015.4 |
| 20260504194251 | 61 | 37 | 0.0 | 1.7 | 0.00 | 0.00 | 0.00 | 71 | 1015.4 |
| 20260504193250 | 62 | 314 | 0.0 | 0.9 | 0.00 | 0.00 | 0.00 | 69 | 1015.4 |
| 20260504192250 | 63 | 177 | 0.0 | 0.0 | 0.00 | 0.00 | 0.00 | 70 | 1015.2 |
| 20260504191251 | 61 | 127 | 0.0 | 0.9 | 0.00 | 0.00 | 0.00 | 73 | 1015.3 |
| 20260504190250 | 61 | 127 | 0.0 | 1.7 | 0.00 | 0.00 | 0.00 | 72 | 1015.3 |
| 20260504185250 | 61 | 183 | 0.0 | 0.9 | 0.00 | 0.00 | 0.00 | 70 | 1015.3 |
| 20260504184251 | 61 | 119 | 0.0 | 0.9 | 0.00 | 0.00 | 0.00 | 70 | 1015.4 |
| 20260504183251 | 61 | 114 | 0.0 | 0.9 | 0.00 | 0.00 | 0.00 | 71 | 1015.3 |
| 20260504182251 | 60 | 114 | 0.0 | 0.9 | 0.00 | 0.00 | 0.00 | 74 | 1015.2 |
| 20260504181253 | 60 | 150 | 0.0 | 1.7 | 0.00 | 0.00 | 0.00 | 75 | 1015.2 |
| 20260504180251 | 60 | 134 | 0.0 | 2.6 | 0.00 | 0.00 | 0.00 | 74 | 1015.1 |
| 20260504175250 | 60 | 135 | 0.0 | 0.9 | 0.00 | 0.00 | 0.00 | 73 | 1015.0 |
| 20260504174253 | 60 | 140 | 0.0 | 0.0 | 0.00 | 0.00 | 0.00 | 74 | 1014.9 |
| 20260504173251 | 61 | 132 | 0.0 | 0.9 | 0.00 | 0.00 | 0.00 | 73 | 1014.9 |
| 20260504172251 | 62 | 140 | 0.0 | 0.9 | 0.00 | 0.00 | 0.00 | 71 | 1014.8 |